This is the latest recevied weather packets stored in our database for station/object NK2J. If no packets are shown the sender has not sent any weather packets the latest 10 day(s).
| Time | Temp. | Humidity | Pressure | Rain* | Wind** | Luminosity | Snow |
|---|---|---|---|---|---|---|---|
| 1778031842 | 22.78° C | 27% | 1012 hPa | 0 mm | - | 19 W/m² | - |
| 1778031539 | 23.33° C | 27% | 1011.9 hPa | 0 mm | - | 21 W/m² | - |
| 1778031237 | 23.33° C | 27% | 1012.1 hPa | 0 mm | - | 26 W/m² | - |
| 1778030932 | 23.33° C | 27% | 1011.9 hPa | 0 mm | - | 29 W/m² | - |
| 1778030629 | 23.33° C | 27% | 1011.9 hPa | 0 mm | - | 31 W/m² | - |
| 1778030327 | 23.33° C | 27% | 1011.7 hPa | 0 mm | - | 33 W/m² | - |
| 1778030023 | 23.33° C | 27% | 1011.8 hPa | 0 mm | - | 38 W/m² | - |
| 1778029721 | 23.33° C | 27% | 1011.7 hPa | 0 mm | - | 54 W/m² | - |
| 1778029419 | 23.89° C | 26% | 1011.8 hPa | 0 mm | - | 56 W/m² | - |
| 1778029115 | 23.33° C | 26% | 1011.7 hPa | 0 mm | - | 53 W/m² | - |
| 1778028812 | 23.33° C | 26% | 1011.6 hPa | 0 mm | - | 55 W/m² | - |
| 1778028508 | 23.89° C | 27% | 1011.6 hPa | 0 mm | - | 54 W/m² | - |
| 1778028206 | 23.89° C | 27% | 1011.6 hPa | 0 mm | - | 74 W/m² | - |
| 1778027902 | 23.89° C | 26% | 1011.7 hPa | 0 mm | - | 164 W/m² | - |
| 1778027598 | 24.44° C | 25% | 1011.6 hPa | 0 mm | - | 198 W/m² | - |
| 1778027295 | 24.44° C | 27% | 1011.5 hPa | 0 mm | - | 210 W/m² | - |
| 1778026991 | 24.44° C | 26% | 1011.5 hPa | 0 mm | - | 222 W/m² | - |
| 1778026687 | 23.89° C | 27% | 1011.5 hPa | 0 mm | - | 242 W/m² | - |
| 1778026385 | 23.89° C | 26% | 1011.3 hPa | 0 mm | - | 247 W/m² | - |
| 1778026081 | 23.89° C | 27% | 1011.3 hPa | 0 mm | - | 222 W/m² | - |
| 1778025779 | 23.89° C | 27% | 1011.5 hPa | 0 mm | - | 279 W/m² | - |
| 1778025475 | 23.89° C | 27% | 1011.6 hPa | 0 mm | - | 82 W/m² | - |
| 1778025173 | 24.44° C | 26% | 1011.4 hPa | 0 mm | - | 281 W/m² | - |
| 1778024870 | 24.44° C | 26% | 1011.3 hPa | 0 mm | - | 303 W/m² | - |
| 1778024568 | 23.89° C | 27% | 1011.5 hPa | 0 mm | - | 325 W/m² | - |
* Rain latest hour (hover to see other rain measurements)
** Current wind speed in m/s (hover to see current wind gust speed)